Temperature
24 24 23 23 21 20 22 24 26 26 26 26 26 25 24 24 23 21 21 21 21 21 21 20 20 20 20 20 19 19 19 19 19 19 19 19 19 19 18 18 18 18 18 18 18 18 18 18 18
24 24 24 23 21 21 23 25 26 26 26 26 26 25 24 23 22 21 21 21 21 21 21 20 20 20 20 20 19 19 19 19 19 19 19 19 19 18 18 18 18 18 18 18 18 18 18 18 18
24 24 23 20 21 22 24 26 26 27 27 27 26 25 24 23 22 21 22 21 21 21 21 20 20 20 20 20 19 19 19 19 19 19 19 19 18 18 18 18 18 18 18 18 18 18 18 18 18
24 23 23 21 23 24 25 26 26 27 27 26 25 24 24 23 23 22 22 22 21 21 21 20 20 20 20 20 19 19 19 19 19 19 19 18 18 18 18 18 18 18 18 18 18 18 18 18 18
24 23 21 21 23 25 26 27 28 27 27 26 25 23 23 23 23 22 22 22 22 21 21 20 20 20 20 20 19 19 19 19 19 19 19 18 18 18 18 18 18 18 18 18 18 18 18 18 18
24 21 21 22 24 26 27 28 28 26 26 25 24 23 22 22 23 22 22 22 22 21 21 20 20 20 20 19 19 19 19 19 19 19 19 18 18 18 18 18 18 18 18 18 18 18 18 18 18
24 21 22 23 24 26 27 28 28 26 26 26 25 23 22 22 22 22 22 22 22 21 21 20 20 20 19 19 19 19 19 19 19 19 19 18 18 18 18 18 18 18 18 18 18 18 18 18 18
25 21 23 23 25 26 27 28 28 27 26 26 25 23 22 22 22 22 22 22 21 21 21 20 20 20 20 19 19 19 19 19 19 19 18 18 18 18 18 18 18 18 18 18 18 18 18 18 18
26 21 21 24 25 26 27 27 27 28 27 26 25 25 24 22 22 21 21 21 21 21 21 20 20 20 20 19 19 19 19 19 19 18 18 18 18 18 18 18 18 18 18 18 18 18 18 17 17
25 21 23 25 26 26 27 27 27 27 25 25 25 24 23 22 22 22 21 21 21 21 20 20 20 20 20 19 19 19 19 19 19 18 18 18 18 18 18 18 18 18 18 18 18 18 18 17 17
24 23 24 26 27 27 27 28 27 26 24 24 24 23 23 23 22 22 22 22 21 21 21 20 20 20 20 20 19 19 19 19 18 18 18 18 18 18 18 18 18 18 18 18 18 17 17 17 17
25 25 26 27 28 28 27 28 27 27 26 26 25 24 23 23 22 22 22 22 21 21 21 20 20 20 20 19 19 19 19 18 18 18 18 18 18 18 18 18 17 18 18 17 17 17 17 17 17
25 25 27 28 28 28 28 28 27 26 26 25 25 24 24 23 22 22 22 22 21 21 21 20 20 20 20 19 19 19 19 18 18 18 18 18 18 18 18 18 17 17 17 17 17 17 17 17 17
25 26 27 27 28 28 28 27 26 25 25 24 24 24 23 23 23 22 22 21 21 21 21 20 20 20 20 19 19 19 18 18 18 18 18 18 18 18 18 18 17 17 17 17 17 17 17 17 17
27 25 25 26 27 28 27 25 25 26 25 24 23 23 23 23 23 22 22 22 21 21 21 20 20 20 19 19 19 19 18 18 18 18 18 18 18 18 18 18 17 17 17 17 17 17 17 17 17
24 24 24 25 26 27 26 24 25 26 25 24 23 23 22 23 23 23 22 22 22 21 21 21 20 20 19 19 19 19 18 18 18 18 18 18 18 18 18 18 17 17 17 17 17 17 17 17 17
22 23 23 25 26 26 25 24 24 25 25 23 23 23 22 22 22 22 22 22 22 22 21 21 20 20 19 19 19 19 18 18 18 18 18 18 18 18 18 17 17 17 17 17 17 17 17 17 17
22 23 24 24 25 25 24 24 24 25 24 23 23 23 22 22 22 22 22 22 22 22 21 21 20 20 19 19 19 18 18 18 18 18 18 18 18 17 17 17 17 17 17 17 17 17 17 17 17
23 24 23 24 25 25 24 24 24 24 24 23 23 22 22 22 22 22 22 22 22 21 21 21 20 20 19 19 19 18 18 18 18 18 18 17 17 17 17 17 17 17 17 17 17 17 17 17 17
24 23 23 24 25 25 24 23 23 23 23 23 23 22 22 22 22 22 22 22 21 21 21 21 20 20 20 19 19 19 18 18 18 18 17 17 17 17 17 17 17 17 17 17 17 17 17 17 17
24 23 23 24 24 24 24 23 23 23 24 23 23 23 23 22 22 21 21 21 21 21 21 20 20 20 19 19 19 18 18 18 17 17 17 17 17 17 17 17 17 17 17 17 17 16 16 17 16
23 24 25 25 23 21 23 21 21 22 22 22 22 23 22 22 22 22 21 21 21 21 21 21 20 20 19 19 19 18 18 18 18 18 17 17 17 17 17 17 17 17 17 17 16 16 16 16 16
24 24 24 24 23 21 21 20 20 21 21 21 22 22 22 22 22 22 22 21 21 21 21 20 20 20 19 19 19 18 18 18 18 17 17 17 17 17 17 17 17 17 17 16 16 16 16 16 16
25 24 22 20 19 20 21 21 20 20 21 22 22 23 23 23 22 22 22 21 21 21 20 20 20 19 19 19 19 18 18 18 18 17 17 17 17 17 17 17 17 16 16 16 16 16 16 16 16
24 20 19 20 18 19 20 21 20 21 22 22 22 22 22 22 22 22 21 21 20 20 20 20 19 19 19 19 18 18 18 18 18 18 17 17 17 17 17 17 17 16 16 16 16 16 16 16 16
23 20 19 19 19 19 20 20 20 21 22 23 23 22 22 22 22 22 21 21 20 20 20 19 19 19 19 19 18 18 18 18 18 17 17 17 17 17 17 17 16 16 16 16 16 16 16 16 16
23 20 19 18 19 19 19 20 21 21 21 21 22 21 21 21 21 21 21 21 20 20 20 20 19 19 19 19 18 18 18 18 18 17 17 17 17 17 16 16 16 16 16 16 16 15 15 15 15
22 21 18 18 18 19 19 20 19 20 20 20 20 20 20 21 20 20 20 21 20 20 20 19 19 19 19 18 18 18 18 18 17 17 17 17 17 16 16 16 16 16 16 15 15 15 15 15 15
22 21 18 16 17 18 18 18 20 19 19 19 19 20 20 20 20 20 20 20 20 20 19 19 19 19 18 18 18 18 18 17 17 17 17 17 16 16 16 16 16 16 16 15 15 15 15 15 15
22 21 18 18 18 16 17 18 20 19 19 19 19 20 20 20 19 19 19 19 19 19 19 19 19 18 18 18 18 17 17 17 17 17 17 16 16 16 16 16 16 15 15 15 15 15 15 15 15
Wind_Speed
4 3 1 2 4 5 1 3 2 3 4 5 9 10 9 6 5 6 5 14 15 12 13 15 15 15 14 13 13 13 12 12 12 12 13 13 13 12 12 12 11 10 11 11 11 10 11 11 11
2 2 2 4 5 2 3 2 3 4 7 9 9 9 8 7 7 10 8 14 16 14 14 14 15 15 14 14 13 13 12 12 12 12 12 13 12 12 12 11 11 11 11 11 10 10 9 10 10
3 2 3 4 2 3 3 2 5 5 6 7 6 6 6 8 9 8 11 17 14 12 13 16 16 15 14 14 13 12 12 12 12 12 12 12 12 12 11 11 11 11 11 10 9 9 8 9 9
1 3 4 3 3 5 5 4 5 6 5 7 8 7 5 5 7 11 17 17 15 11 13 16 17 15 15 14 13 12 12 12 12 11 11 12 11 11 11 11 10 10 9 9 8 8 8 8 8
3 4 4 2 5 4 3 5 5 6 4 7 10 7 5 4 16 19 18 17 15 11 11 14 16 15 15 14 13 12 12 11 11 11 11 11 10 10 10 10 9 9 9 8 8 7 7 7 7
3 4 3 2 5 4 1 3 6 9 9 10 10 8 4 9 16 17 17 15 15 13 11 13 15 15 14 14 13 12 12 11 10 10 10 10 10 9 9 9 9 8 8 8 7 7 7 7 7
4 3 2 3 3 4 2 2 7 9 8 7 9 8 6 8 13 14 15 15 13 13 11 10 12 13 13 13 13 12 11 10 10 9 10 9 9 9 9 8 8 7 7 6 6 6 6 6 6
5 3 1 2 1 4 2 1 3 8 6 9 7 9 9 11 12 14 14 13 11 10 9 8 10 11 11 11 12 11 10 10 9 9 9 9 9 8 8 7 7 7 6 5 5 4 5 5 5
3 3 3 4 2 3 2 1 2 4 7 5 4 7 14 17 16 15 12 10 9 10 7 7 7 8 9 10 10 10 10 9 9 8 8 8 6 6 6 6 6 6 5 4 3 4 4 3 4
4 3 8 6 5 5 4 3 3 4 7 7 9 11 16 17 17 16 15 13 11 11 9 8 7 7 8 8 9 8 8 8 7 7 7 6 6 5 5 5 5 4 4 3 3 2 2 2 2
5 7 6 6 6 5 3 2 3 7 5 10 16 18 17 16 14 14 14 13 12 12 11 9 8 8 7 6 7 6 6 6 6 6 6 6 5 4 3 3 2 2 2 2 1 1 0 1 1
4 7 6 5 4 4 5 3 2 5 8 13 19 20 17 15 14 13 14 13 11 11 10 10 9 7 7 7 6 6 5 4 4 5 7 6 4 3 3 2 2 2 2 1 0 0 1 1 2
5 7 6 5 3 3 3 3 3 3 10 14 16 16 16 16 14 12 13 13 12 11 10 10 10 9 7 6 5 6 5 5 5 5 6 6 4 3 3 2 2 2 2 1 1 1 1 1 1
6 5 6 5 4 3 3 1 4 4 11 14 15 14 14 15 14 12 11 11 10 10 9 9 9 9 8 6 5 4 6 6 6 5 6 7 5 4 3 2 2 2 2 2 2 2 2 2 2
3 4 7 5 4 3 4 1 4 9 12 13 14 14 13 12 13 13 13 12 12 11 9 8 8 7 8 7 6 5 6 7 5 5 6 7 6 5 4 3 2 2 2 2 2 2 3 2 2
5 3 4 8 3 3 6 5 7 9 13 12 12 13 12 10 12 12 12 11 11 10 9 9 8 7 7 6 5 5 6 6 5 6 6 6 6 6 5 3 2 2 3 3 2 2 3 2 2
4 2 5 8 4 3 5 6 7 8 12 12 11 11 12 10 10 11 12 12 11 11 10 8 7 7 7 6 5 5 5 5 5 6 6 6 6 6 5 3 2 3 3 2 3 3 3 3 2
5 4 4 6 5 2 4 6 6 9 12 13 11 9 10 11 11 12 12 12 11 11 10 9 8 7 6 5 4 3 3 3 3 4 5 6 6 6 5 3 2 3 3 2 2 3 2 2 2
5 5 7 8 6 2 5 6 8 8 9 10 11 10 10 9 9 11 11 12 10 9 9 8 8 7 6 4 4 4 3 3 2 3 5 6 6 6 5 3 3 3 3 2 3 3 3 2 2
6 6 7 8 4 1 2 4 6 8 10 13 14 13 12 10 8 9 10 11 10 10 9 9 8 8 7 5 5 4 4 3 3 2 4 6 6 6 5 4 3 3 3 2 3 3 2 1 1
7 6 6 6 5 3 2 2 4 4 5 7 10 12 13 14 13 12 11 11 11 10 10 9 8 8 7 6 4 4 3 2 1 2 2 3 5 6 5 5 4 3 3 2 2 2 3 2 0
8 8 5 4 1 4 2 2 6 4 4 6 8 9 12 12 12 12 12 12 12 11 11 10 9 8 7 7 7 7 6 4 4 4 3 3 4 5 6 5 5 4 3 3 2 2 2 3 1
7 5 3 2 2 2 1 3 6 3 5 8 10 11 12 12 13 13 13 14 13 11 10 8 7 6 6 7 8 7 5 4 3 3 4 3 3 4 5 5 4 4 3 3 2 2 2 2 2
5 1 5 4 4 3 5 4 6 5 8 8 9 11 13 13 13 12 11 11 10 9 8 8 8 6 6 7 7 7 7 6 5 4 5 4 3 3 4 5 4 3 3 3 3 3 3 2 2
3 5 3 5 3 6 5 3 7 7 7 9 9 10 11 12 11 11 12 12 11 11 10 9 9 7 6 7 7 7 8 8 8 7 6 5 4 3 4 4 3 3 3 3 2 2 2 2 2
4 9 7 5 5 5 4 4 6 5 3 4 6 8 9 9 10 11 13 13 13 12 11 10 10 9 8 8 7 7 7 6 6 6 6 6 5 5 5 4 4 4 4 3 2 2 2 2 2
4 4 8 7 2 1 4 5 5 4 4 2 2 6 8 8 8 9 10 11 12 12 11 12 11 9 8 8 7 6 6 6 6 6 6 5 5 5 5 5 4 4 4 3 2 2 2 2 2
5 6 6 5 3 3 4 3 3 3 2 1 2 5 6 7 7 7 8 9 10 10 9 10 10 9 8 7 7 6 6 6 6 6 6 7 6 5 6 5 5 4 4 3 3 2 2 2 1
1 2 4 4 5 5 3 6 4 3 2 2 3 5 7 8 8 8 7 8 8 7 7 8 9 8 7 7 6 5 5 5 6 6 7 7 6 6 6 6 5 5 4 3 3 3 3 2 2
3 4 6 4 3 5 4 6 3 1 1 1 1 3 6 7 7 7 6 6 6 6 6 6 7 7 8 7 6 5 4 5 6 6 6 7 7 6 6 6 5 5 5 4 4 3 3 3 3
Wind_Direction
202 194 137 64 52 49 314 254 145 81 50 61 78 88 90 81 116 144 150 141 138 140 140 134 128 122 116 110 106 103 100 100 102 103 105 105 104 103 105 106 107 110 115 116 114 116 118 116 117
197 175 64 54 75 54 287 215 111 126 138 116 87 88 83 75 92 116 126 141 140 139 139 135 130 124 119 114 108 104 103 103 103 105 105 105 107 107 107 107 107 111 118 119 119 120 119 119 118
236 179 87 69 98 184 239 183 137 127 129 113 93 69 80 111 116 129 141 142 137 135 138 136 130 127 122 118 112 108 106 106 106 108 107 107 108 111 112 111 110 112 118 120 120 123 123 119 119
100 54 49 75 238 235 213 210 144 115 84 86 101 76 65 102 123 133 137 139 133 134 138 137 133 130 126 122 117 112 110 110 110 110 111 110 109 112 114 113 112 115 121 123 122 125 125 121 119
75 76 49 357 264 255 213 199 158 121 111 104 101 94 68 72 118 130 136 137 134 136 138 138 136 133 130 127 122 117 114 114 115 114 113 114 113 114 117 119 118 117 123 129 126 124 128 126 116
50 70 74 277 280 283 238 160 129 107 115 113 107 107 99 122 127 138 138 138 136 137 138 141 141 137 134 131 128 125 121 118 118 119 119 119 117 116 119 124 125 125 125 127 125 120 117 118 117
125 103 192 232 276 289 249 139 129 136 139 138 129 110 127 140 142 140 137 135 135 136 138 141 142 140 139 137 135 130 126 125 122 121 123 124 124 123 122 128 130 130 130 132 134 132 130 128 126
153 105 281 261 258 271 245 84 116 130 123 128 126 133 153 162 141 132 131 131 131 131 135 139 140 138 139 141 142 138 134 133 130 129 128 127 126 126 126 130 136 139 139 141 142 141 136 130 123
124 87 244 234 201 251 247 97 24 77 111 111 108 138 149 148 135 130 128 127 135 138 143 145 144 143 144 145 149 148 146 144 140 138 138 137 137 138 134 138 145 148 153 156 148 147 142 123 106
120 172 233 226 201 218 244 166 140 78 95 95 95 111 135 142 141 142 145 148 152 154 158 154 154 153 151 151 148 152 153 154 151 153 154 154 155 153 145 151 150 153 152 148 153 157 156 114 87
177 209 243 258 226 200 223 214 154 125 128 149 144 145 148 146 148 150 154 158 159 159 158 159 157 157 158 151 149 154 157 160 165 168 166 162 162 164 159 167 171 170 139 127 141 171 163 114 106
235 254 246 257 242 196 190 179 145 146 171 162 151 148 150 149 156 162 158 157 154 155 160 162 160 157 157 153 159 162 159 166 171 171 164 156 150 156 168 170 177 174 159 154 171 177 136 138 145
252 259 260 248 264 215 170 161 143 153 144 143 142 146 150 152 158 164 157 153 151 154 158 162 163 160 158 155 165 160 166 171 173 164 165 160 154 149 156 154 153 158 155 147 137 112 125 148 132
247 266 281 264 270 249 164 186 111 155 145 144 147 154 157 161 157 150 148 149 153 156 158 159 160 160 155 158 160 160 167 167 163 161 162 158 155 150 139 137 144 160 171 170 147 126 124 123 111
281 312 313 283 261 230 117 337 192 172 149 151 154 155 155 158 154 156 158 155 155 154 153 155 161 158 153 154 160 158 162 158 158 162 159 154 147 147 147 139 137 154 147 142 110 88 92 102 106
350 353 301 283 251 226 129 221 227 174 155 157 157 159 157 158 162 161 155 149 151 150 153 160 164 158 154 154 152 152 156 154 157 159 156 158 153 147 144 134 137 134 120 106 109 103 101 98 96
359 283 270 287 267 200 159 207 222 179 161 160 163 164 159 153 157 157 154 154 156 154 155 160 165 160 154 149 141 143 150 153 157 154 157 159 154 151 142 134 138 127 105 100 109 106 119 116 106
248 251 265 269 281 165 180 211 212 184 169 168 167 164 160 158 164 163 158 159 156 152 151 159 165 163 155 143 131 129 133 152 153 154 159 159 154 150 144 136 126 121 105 98 99 108 103 118 127
228 251 267 270 266 196 201 212 212 185 169 170 169 168 164 167 169 164 161 158 152 151 153 157 161 169 158 151 156 159 169 171 165 166 159 161 158 152 144 133 127 123 129 141 127 117 111 103 105
239 254 269 289 284 220 201 221 217 193 185 180 175 173 171 170 165 166 164 160 158 161 164 163 165 171 169 170 171 168 162 167 174 171 163 165 161 156 152 141 140 131 127 120 114 114 122 138 117
257 229 240 251 306 351 99 299 245 229 186 181 182 173 173 173 174 173 171 170 166 167 170 170 171 170 171 162 143 135 115 107 128 151 177 183 169 165 160 153 147 134 129 142 142 126 130 137 55
254 248 234 237 266 275 147 232 272 229 209 192 193 185 182 177 174 175 174 173 174 175 175 172 170 167 168 159 155 155 162 173 190 182 181 182 172 165 167 164 157 144 137 148 164 138 135 132 133
226 241 233 227 209 290 326 158 268 243 220 217 204 188 183 177 175 178 180 177 176 174 174 171 164 162 164 165 166 165 169 179 169 157 159 171 173 170 170 163 158 153 152 159 162 149 145 145 144
202 31 7 35 70 295 255 182 259 236 219 220 207 189 185 178 176 178 176 167 169 169 167 164 162 170 172 171 173 173 174 170 160 164 167 174 174 173 173 167 163 159 156 164 168 171 163 164 144
113 98 25 348 353 256 264 208 243 247 225 210 202 189 183 171 168 171 166 167 169 170 170 165 167 176 181 178 183 187 184 176 177 177 173 174 172 179 189 175 169 168 174 173 162 160 167 169 162
189 144 162 199 229 271 314 236 254 260 229 197 183 173 169 162 167 170 170 170 171 172 171 169 174 180 186 187 190 190 185 181 182 179 174 180 183 187 183 176 176 176 179 179 164 171 194 183 177
168 172 173 155 201 255 281 281 311 349 12 54 149 156 166 164 164 167 167 168 168 171 175 176 179 183 190 191 186 183 183 180 181 180 179 185 184 181 174 174 177 183 182 178 166 186 215 199 183
159 161 100 122 171 243 276 267 257 300 315 32 145 160 164 156 150 153 154 160 165 169 176 179 177 182 188 186 185 183 187 186 181 177 180 180 180 175 171 176 179 183 183 181 176 188 207 185 200
21 93 111 130 154 165 242 270 235 223 232 201 186 168 162 159 157 153 152 152 153 153 163 174 178 177 182 186 188 188 188 184 179 180 180 179 176 174 178 182 180 182 187 187 186 201 182 178 199
166 170 141 149 228 172 177 257 270 196 246 173 152 149 150 150 152 151 152 150 149 150 156 165 173 174 180 183 179 184 188 180 180 183 181 175 174 178 182 182 180 186 189 190 190 200 190 181 193
Height
1510 1510 1509 1510 1512 1521 1523 1511 1502 1499 1499 1499 1498 1500 1504 1509 1514 1523 1520 1520 1522 1523 1524 1525 1525 1525 1524 1524 1524 1524 1524 1524 1524 1524 1523 1523 1523 1523 1523 1523 1523 1522 1523 1524 1525 1526 1527 1528 1529
1510 1510 1511 1511 1519 1532 1524 1507 1502 1499 1499 1499 1500 1502 1505 1510 1512 1515 1517 1521 1522 1523 1524 1525 1525 1525 1525 1525 1525 1525 1524 1525 1525 1524 1524 1524 1524 1524 1524 1524 1523 1522 1523 1525 1526 1528 1528 1529 1530
1510 1510 1512 1514 1523 1527 1518 1503 1500 1499 1498 1497 1501 1504 1507 1512 1514 1516 1518 1521 1523 1524 1525 1526 1526 1526 1526 1526 1526 1526 1525 1525 1525 1525 1525 1525 1526 1526 1526 1525 1525 1525 1525 1526 1527 1528 1529 1530 1531
1511 1511 1513 1519 1521 1513 1506 1500 1497 1499 1500 1499 1501 1507 1511 1514 1514 1516 1519 1521 1523 1524 1525 1526 1526 1527 1527 1527 1527 1527 1526 1526 1526 1526 1526 1527 1527 1527 1527 1527 1527 1527 1527 1528 1528 1529 1530 1531 1532
1511 1511 1517 1524 1517 1506 1499 1497 1496 1497 1499 1501 1501 1508 1513 1516 1516 1517 1520 1522 1523 1524 1526 1526 1527 1527 1527 1528 1528 1528 1527 1527 1527 1527 1527 1528 1528 1528 1528 1528 1528 1528 1529 1529 1530 1531 1531 1532 1533
1511 1512 1526 1529 1516 1503 1499 1496 1496 1498 1501 1503 1504 1509 1516 1518 1517 1519 1520 1523 1524 1525 1526 1527 1528 1528 1528 1528 1529 1529 1529 1528 1528 1528 1528 1529 1529 1529 1529 1530 1530 1530 1530 1530 1531 1532 1532 1533 1534
1511 1515 1523 1520 1514 1506 1499 1497 1495 1498 1500 1502 1503 1509 1515 1518 1518 1520 1521 1523 1524 1525 1526 1527 1528 1528 1529 1529 1529 1530 1530 1529 1529 1529 1529 1529 1530 1530 1531 1531 1531 1532 1532 1532 1532 1533 1533 1534 1535
1509 1513 1517 1517 1513 1507 1498 1497 1497 1497 1500 1502 1503 1506 1513 1517 1519 1520 1522 1524 1525 1526 1526 1527 1528 1529 1529 1530 1530 1530 1531 1530 1530 1530 1530 1530 1531 1531 1532 1532 1533 1533 1533 1533 1534 1534 1534 1535 1535
1507 1517 1521 1514 1509 1504 1497 1497 1498 1498 1499 1502 1502 1504 1509 1515 1518 1520 1522 1524 1525 1526 1526 1528 1528 1529 1530 1530 1531 1531 1531 1531 1531 1531 1531 1531 1532 1532 1533 1533 1534 1534 1534 1534 1535 1535 1536 1536 1537
1505 1517 1511 1502 1500 1499 1497 1497 1497 1500 1501 1502 1504 1507 1511 1514 1517 1518 1520 1522 1523 1524 1526 1527 1529 1529 1530 1530 1531 1532 1532 1532 1532 1532 1532 1533 1533 1533 1534 1534 1534 1535 1535 1535 1536 1536 1536 1537 1537
1501 1505 1499 1496 1495 1495 1496 1496 1496 1499 1502 1501 1502 1506 1510 1513 1516 1518 1519 1521 1522 1524 1525 1527 1528 1529 1530 1531 1531 1532 1532 1533 1533 1533 1533 1533 1534 1534 1534 1535 1535 1535 1536 1536 1536 1536 1537 1537 1537
1499 1496 1495 1494 1493 1494 1494 1495 1496 1496 1498 1500 1501 1503 1507 1511 1514 1516 1518 1520 1522 1523 1525 1526 1528 1529 1530 1531 1532 1532 1533 1533 1533 1533 1534 1534 1534 1534 1534 1535 1535 1536 1536 1536 1537 1537 1537 1537 1538
1497 1494 1492 1491 1491 1491 1491 1493 1494 1495 1497 1500 1503 1505 1506 1509 1512 1515 1518 1520 1522 1523 1524 1525 1527 1528 1529 1530 1532 1532 1533 1533 1534 1534 1534 1534 1534 1534 1535 1535 1536 1536 1536 1537 1537 1537 1537 1537 1538
1493 1491 1490 1489 1488 1488 1490 1492 1494 1497 1498 1500 1502 1504 1506 1508 1510 1514 1517 1519 1521 1522 1524 1525 1527 1528 1529 1530 1531 1532 1533 1534 1534 1534 1534 1534 1534 1535 1535 1535 1536 1536 1537 1537 1537 1537 1537 1538 1538
1492 1492 1491 1488 1487 1488 1490 1496 1494 1495 1498 1500 1501 1503 1506 1508 1511 1513 1515 1517 1520 1521 1523 1525 1526 1527 1528 1529 1531 1532 1533 1533 1533 1534 1534 1534 1535 1535 1535 1535 1536 1536 1537 1537 1538 1537 1538 1538 1538
1493 1497 1502 1490 1486 1486 1493 1505 1494 1494 1496 1499 1501 1503 1505 1507 1510 1512 1515 1517 1519 1521 1522 1524 1526 1527 1528 1529 1530 1531 1532 1533 1533 1533 1534 1534 1534 1535 1535 1535 1536 1536 1537 1537 1538 1538 1538 1538 1539
1502 1508 1505 1495 1484 1486 1492 1499 1492 1493 1494 1497 1500 1502 1504 1506 1509 1511 1514 1516 1518 1520 1522 1523 1525 1526 1528 1529 1530 1531 1532 1532 1533 1533 1533 1534 1534 1534 1535 1535 1536 1536 1537 1537 1538 1538 1538 1538 1539
1510 1507 1503 1499 1487 1487 1492 1495 1490 1490 1492 1494 1497 1500 1503 1504 1506 1509 1512 1515 1517 1519 1520 1522 1523 1525 1527 1528 1529 1530 1531 1532 1532 1532 1533 1533 1534 1534 1534 1534 1535 1536 1536 1537 1537 1538 1538 1538 1538
1498 1501 1502 1494 1485 1488 1492 1492 1489 1489 1491 1493 1495 1498 1500 1502 1505 1508 1510 1513 1515 1517 1519 1520 1522 1524 1525 1526 1527 1528 1529 1530 1531 1532 1532 1533 1533 1533 1534 1534 1534 1535 1535 1536 1537 1537 1537 1538 1538
1495 1501 1500 1492 1483 1486 1491 1492 1488 1488 1489 1489 1491 1494 1497 1501 1503 1505 1508 1511 1513 1515 1516 1518 1520 1521 1523 1524 1525 1526 1528 1529 1530 1531 1531 1532 1532 1532 1533 1533 1534 1534 1535 1535 1536 1536 1537 1537 1537
1493 1497 1496 1494 1487 1487 1492 1499 1492 1488 1488 1490 1490 1491 1494 1496 1499 1502 1505 1508 1510 1512 1514 1516 1517 1519 1521 1523 1524 1525 1527 1528 1529 1529 1529 1530 1531 1531 1532 1532 1533 1534 1534 1534 1535 1535 1536 1536 1537
1495 1484 1485 1487 1497 1505 1498 1517 1501 1492 1490 1488 1489 1489 1490 1493 1495 1499 1501 1504 1506 1509 1511 1513 1515 1517 1519 1521 1522 1523 1524 1525 1526 1527 1528 1529 1529 1530 1531 1531 1532 1532 1533 1533 1534 1535 1535 1535 1536
1484 1478 1482 1486 1495 1504 1502 1514 1507 1493 1493 1488 1484 1485 1487 1489 1491 1495 1497 1500 1503 1506 1508 1510 1513 1514 1516 1518 1520 1521 1522 1523 1524 1525 1526 1527 1528 1529 1529 1530 1531 1531 1532 1532 1533 1534 1535 1535 1535
1475 1481 1486 1493 1503 1517 1505 1511 1510 1495 1489 1484 1480 1481 1482 1486 1488 1492 1495 1499 1501 1504 1506 1508 1510 1512 1514 1515 1517 1518 1519 1520 1522 1523 1524 1525 1526 1527 1528 1529 1530 1530 1531 1531 1532 1533 1534 1534 1534
1477 1497 1517 1519 1526 1522 1502 1505 1504 1484 1479 1478 1477 1479 1481 1483 1486 1489 1492 1495 1498 1501 1503 1505 1508 1509 1511 1513 1514 1516 1517 1518 1519 1521 1522 1523 1524 1525 1526 1527 1528 1529 1530 1530 1531 1532 1532 1533 1534
1480 1493 1518 1529 1530 1520 1504 1506 1494 1478 1475 1474 1474 1476 1479 1481 1484 1486 1489 1492 1495 1498 1500 1502 1504 1506 1508 1510 1512 1513 1515 1516 1517 1518 1520 1521 1522 1524 1525 1526 1527 1528 1528 1529 1530 1530 1531 1532 1532
1481 1490 1491 1509 1513 1520 1514 1500 1486 1477 1476 1475 1475 1477 1478 1480 1482 1485 1487 1490 1493 1495 1497 1500 1502 1505 1506 1508 1509 1511 1513 1514 1515 1516 1518 1519 1521 1522 1524 1525 1526 1526 1527 1527 1528 1528 1529 1530 1530
1473 1479 1496 1509 1521 1525 1515 1505 1501 1487 1482 1477 1477 1477 1477 1478 1481 1483 1485 1488 1491 1493 1496 1498 1500 1503 1505 1507 1508 1509 1511 1512 1513 1514 1515 1517 1519 1520 1522 1523 1524 1525 1525 1526 1526 1526 1527 1528 1528
1478 1483 1492 1505 1510 1522 1525 1513 1486 1484 1481 1478 1476 1475 1476 1477 1479 1481 1484 1487 1489 1492 1494 1496 1498 1500 1503 1505 1506 1508 1509 1510 1512 1513 1514 1516 1517 1519 1520 1521 1522 1523 1523 1524 1525 1525 1526 1526 1527
1472 1479 1489 1505 1509 1511 1517 1510 1481 1481 1479 1476 1475 1475 1475 1476 1478 1481 1483 1485 1488 1489 1492 1494 1496 1498 1501 1503 1504 1506 1507 1508 1509 1511 1513 1514 1516 1517 1518 1519 1520 1521 1521 1522 1523 1523 1524 1524 1525